Weather History for Cecil Field, FL

Change the Weather History Date:

Tuesday, July 9, 2013

  Actual Average (KJAX) Record (KJAX)
Temperature  
Mean Temperature 78 °F 82 °F  
Max Temperature 89 °F 92 °F 101 °F (1941)
Min Temperature 68 °F 72 °F 63 °F (2006)
Degree Days  
Heating Degree Days 0 0  
Month to date heating degree days 0  
Since 1 June heating degree days 0  
Since 1 July heating degree days 0  
Cooling Degree Days 14 17  
Month to date cooling degree days 153  
Year to date cooling degree days 1086  
Since 1 June cooling degree days 602  
Growing Degree Days 28 (Base 50)    
Moisture  
Dew Point 72 °F    
Average Humidity 86    
Maximum Humidity 100    
Minimum Humidity 52    
Precipitation  
Precipitation 0.00 in 0.22 in 2.07 in (1955)
Month to date precipitation 1.91  
Year to date precipitation 23.92  
Snow  
Snow 0.00 in 0.00 in 0.00 in (2002)
Month to date snowfall 0.0  
Since 1 June snowfall 0.0  
Since 1 July snowfall 0.0  
Snow Depth -    
Sea Level Pressure  
Sea Level Pressure 30.15 in    
Wind  
Wind Speed 1 mph (ESE)    
Max Wind Speed 10 mph    
Max Gust Speed 15 mph    
Visibility 8 miles    
Events      
T = Trace of Precipitation, MM = Missing Value Source: NWS Daily Summary

Daily Weather History Graph

Daily Weather History Graph

Search for Another Location

Airport:

Trip Planner

Search our weather history database for the weather conditions in past years. The results will help you decide how hot, cold, wet, or windy it might be!

Date:

Astronomy

Jul. 09, 2013 Rise Set
Actual Time 6:33 AM EDT 8:32 PM EDT
Civil Twilight 6:05 AM EDT 8:59 PM EDT
Nautical Twilight 5:32 AM EDT 9:32 PM EDT
Astronomical Twilight 4:57 AM EDT 10:07 PM EDT
Moon 7:47 AM EDT (7/9) 9:20 PM EDT (7/9)
Length of Visible Light 14h 53m
Length of Day
13h 59m
New Moon, 2% of the Moon is Illuminated
Jul 9
New Moon
Jul 15
First Quarter
Jul 22
Full
Jul 29
Last Quarter
Aug 6
New

Hourly Weather History & Observations

Time (EDT) Temp. Heat Index Dew Point Humidity Pressure Visibility Wind Dir Wind Speed Gust Speed Precip Events Conditions
12:15 AM 75.2 °F - 75.2 °F 100% 30.19 in 10.0 mi Calm Calm - N/A   Clear
12:35 AM 75.2 °F - 75.2 °F 100% 30.19 in 10.0 mi Calm Calm - N/A   Clear
12:55 AM 75.2 °F - 75.2 °F 100% 30.18 in 10.0 mi Calm Calm - N/A   Clear
1:15 AM 73.4 °F - 73.4 °F 100% 30.18 in 9.0 mi Calm Calm - N/A   Clear
1:35 AM 73.4 °F - 73.4 °F 100% 30.18 in 8.0 mi Calm Calm - N/A   Clear
1:55 AM 73.4 °F - 73.4 °F 100% 30.17 in 7.0 mi Calm Calm - N/A   Mostly Cloudy
2:15 AM 73.4 °F - 73.4 °F 100% 30.16 in 5.0 mi Calm Calm - N/A   Mostly Cloudy
2:35 AM 73.4 °F - 73.4 °F 100% 30.16 in 3.0 mi Calm Calm - N/A   Mostly Cloudy
2:55 AM 71.6 °F - 71.6 °F 100% 30.16 in 7.0 mi Calm Calm - N/A   Partly Cloudy
3:15 AM 71.6 °F - 71.6 °F 100% 30.16 in 3.0 mi Calm Calm - N/A   Clear
3:35 AM 71.6 °F - 71.6 °F 100% 30.15 in 8.0 mi Calm Calm - N/A   Partly Cloudy
3:55 AM 71.6 °F - 71.6 °F 100% 30.16 in 6.0 mi Calm Calm - N/A   Scattered Clouds
4:15 AM 71.6 °F - 71.6 °F 100% 30.16 in 2.5 mi Calm Calm - N/A   Scattered Clouds
4:35 AM 71.6 °F - 71.6 °F 100% 30.16 in 5.0 mi Calm Calm - N/A   Partly Cloudy
4:55 AM 69.8 °F - 69.8 °F 100% 30.16 in 2.5 mi Calm Calm - N/A   Clear
5:15 AM 69.8 °F - 69.8 °F 100% 30.16 in 4.0 mi Calm Calm - N/A   Clear
5:35 AM 69.8 °F - 69.8 °F 100% 30.16 in 6.0 mi Calm Calm - N/A   Partly Cloudy
5:55 AM 68.0 °F - 68.0 °F 100% 30.16 in 5.0 mi Calm Calm - N/A   Partly Cloudy
6:15 AM 69.8 °F - 69.8 °F 100% 30.16 in 5.0 mi Calm Calm - N/A   Partly Cloudy
6:35 AM 69.8 °F - 69.8 °F 100% 30.16 in 5.0 mi Calm Calm - N/A   Mostly Cloudy
6:50 AM 69.8 °F - 69.8 °F 100% 30.16 in 5.0 mi Calm Calm - N/A   Clear
7:50 AM 73.4 °F - 73.4 °F 100% 30.17 in 10.0 mi Calm Calm - N/A   Clear
8:50 AM 78.8 °F - 75.2 °F 89% 30.19 in 10.0 mi Calm Calm - N/A   Partly Cloudy
9:50 AM 82.4 °F 88.2 °F 73.4 °F 74% 30.20 in 10.0 mi Calm Calm - N/A   Scattered Clouds
10:50 AM 84.2 °F 90.9 °F 73.4 °F 70% 30.20 in 10.0 mi Variable 4.6 mph - N/A   Partly Cloudy
11:50 AM 86.0 °F 91.8 °F 71.6 °F 62% 30.19 in 10.0 mi Calm Calm - N/A   Scattered Clouds
12:50 PM 87.8 °F 93.8 °F 71.6 °F 58% 30.19 in 10.0 mi East 9.2 mph - N/A   Scattered Clouds
1:50 PM 89.6 °F 94.7 °F 69.8 °F 52% 30.17 in 10.0 mi SE 5.8 mph - N/A   Mostly Cloudy
2:50 PM 89.6 °F 96.2 °F 71.6 °F 55% 30.14 in 10.0 mi ESE 9.2 mph - N/A   Mostly Cloudy
3:50 PM 87.8 °F 95.6 °F 73.4 °F 62% 30.13 in 10.0 mi ESE 9.2 mph 15.0 mph N/A   Mostly Cloudy
4:50 PM 89.6 °F 94.7 °F 69.8 °F 52% 30.11 in 10.0 mi ESE 10.4 mph - N/A   Scattered Clouds
5:50 PM 89.6 °F 94.7 °F 69.8 °F 52% 30.10 in 10.0 mi ESE 5.8 mph - N/A   Partly Cloudy
6:50 PM 86.0 °F 90.4 °F 69.8 °F 58% 30.09 in 10.0 mi ESE 5.8 mph - N/A   Clear
7:50 PM 82.4 °F 87.2 °F 71.6 °F 70% 30.10 in 10.0 mi ESE 6.9 mph - N/A   Clear
8:15 PM 82.4 °F 87.2 °F 71.6 °F 70% 30.11 in 10.0 mi ESE 4.6 mph - N/A   Clear
8:35 PM 80.6 °F 84.6 °F 71.6 °F 74% 30.12 in 10.0 mi East 4.6 mph - N/A   Clear
8:55 PM 80.6 °F 83.9 °F 69.8 °F 70% 30.12 in 10.0 mi ESE 3.5 mph - N/A   Clear
9:15 PM 78.8 °F - 69.8 °F 74% 30.12 in 10.0 mi Calm Calm - N/A   Clear
9:35 PM 77.0 °F - 69.8 °F 78% 30.13 in 10.0 mi East 4.6 mph - N/A   Clear
9:55 PM 77.0 °F - 71.6 °F 83% 30.13 in 10.0 mi Calm Calm - N/A   Clear
10:15 PM 75.2 °F - 71.6 °F 89% 30.13 in 10.0 mi Calm Calm - N/A   Clear
10:35 PM 75.2 °F - 71.6 °F 89% 30.13 in 10.0 mi Calm Calm - N/A   Clear
10:55 PM 73.4 °F - 71.6 °F 94% 30.13 in 10.0 mi Calm Calm - N/A   Clear
11:15 PM 73.4 °F - 71.6 °F 94% 30.13 in 10.0 mi Calm Calm - N/A   Clear
11:35 PM 71.6 °F - 71.6 °F 100% 30.13 in 10.0 mi Calm Calm - N/A   Clear
11:55 PM 71.6 °F - 71.6 °F 100% 30.13 in 10.0 mi Calm Calm - N/A   Clear